小惑星A/2019 Q1

A/2019 Q1

English version
Home page
Updated on January 20, 2020

---------------------------------------------------------------------

・ プロフィール

発見日 2019年8月28日
発見光度 20.6等
発見者 Mt. Lemmon Survey

・ 軌道要素

Epoch 2020 July 10.0 TT = JDT 2459040.5
T 2020 July 19.81915 TT                                 Williams
q   4.9966724            (2000.0)            P               Q
z  -0.0000683      Peri.   55.93462     +0.92261612     -0.26849164
 +/-0.0000420      Node    42.33575     -0.30152237     -0.94977725
e   1.0003412      Incl.  155.71974     +0.24054885     -0.16073398
H   12.5
From 114 observations 2019 Aug. 28-Dec. 28, mean residual 0".4.

・ 光度変化

        H = 12.5  G = 0.15

---------------------------------------------------------------------

軌道要素はM.P.E.C. 2020-A105に掲載されたものです。
光度グラフはComet for Windowsで作成したものです。

---------------------------------------------------------------------

Copyright(C) Seiichi Yoshida (comet@aerith.net). All rights reserved.